Weather Roundup
Issued by NWS Corpus Christi, TX

Home | Current Version | Previous Version | Text Only | Print | Product List | Glossary On
Versions: 1 2 3 4 5 6 7 8 9 10 11 12 13 14 15 16 17 18 19 20 21 22 23 24 25 26 27 28 29 30 31 32 33 34 35 36 37 38 39 40 41 42 43 44 45 46 47 48 49 50
888
ASUS44 KCRP 060410
HRRCRP

SOUTH TEXAS REGIONAL WEATHER ROUNDUP
NATIONAL WEATHER SERVICE CORPUS CHRISTI TX
1100 PM CDT THU MAY 05 2016


TXZ229>244-060500-
...CORPUS CHRISTI AREA OBSERVATIONS...

CITY           SKY/WX    TMP DP  RH WIND       PRES   REMARKS
CORPUS CHRISTI PTCLDY    70  60  70 CALM      30.01R
NAS CORPUS CHR PTCLDY    71  62  73 SE3       30.00R
ROCKPORT       CLEAR     69  56  62 CALM      30.00R
KINGSVILLE NAS MOCLDY    66  60  81 CALM      30.01R
ALICE          CLEAR     65  54  67 CALM      30.01R
FALFURRIAS     CLEAR     72  56  56 S3        30.01R
$$

...VICTORIA AREA OBSERVATIONS...

CITY           SKY/WX    TMP DP  RH WIND       PRES   REMARKS
VICTORIA       CLEAR     68  61  78 N5        30.02R
BEEVILLE       FAIR      72  53  52 SE3       30.02R
PLEASANTON     CLEAR     65  51  61 CALM      30.03S
SAN ANTONIO    PTCLDY    73  54  51 CALM      30.05R
$$

...LAREDO AREA OBSERVATIONS...

CITY           SKY/WX    TMP DP  RH WIND       PRES   REMARKS
LAREDO         CLEAR     78  52  40 E9        30.01R
COTULLA        CLEAR     75  42  30 E7        30.02R
DEL RIO        CLOUDY    76  44  32 E8        30.00R
MCALLEN        PTCLDY    75  58  55 SE9       30.02R
HEBBRONVILLE   CLEAR     74  53  48 SE6       30.04R
$$

...OTHER TEXAS OBSERVATIONS...

CITY           SKY/WX    TMP DP  RH WIND       PRES   REMARKS
BROWNSVILLE    CLEAR     68  63  84 SW3       30.02R
HOUSTON        MOCLDY    68  51  54 NW3       30.01R
COL. STATION   CLOUDY    70  51  51 CALM      30.03R
AUSTIN         PTCLDY    63  60  90 CALM      30.04R
WACO           PTCLDY    60  54  80 NE3       30.05R
FORT WORTH     PTCLDY    72  45  37 CALM      30.05R
WICHITA FALLS  CLEAR     64  49  57 SE7       30.06R
LUBBOCK        CLEAR     70  39  32 S14       30.07R
EL PASO        PTCLDY    81  29  15 SE16G24   29.93R
$$

...MARINE OBSERVATIONS...

STATION/POSITION TIME  SKY/WX   TEMP    WIND        PRES    VSBY  WAVE   SWELL
                                AIR SEA DIR/SP/G                  HT/PER HT/PER
                 (UTC)          (F)     (DEG/KT/KT) (MB)    (MI)  (FT/S) (FT/S)
PORT ARANSAS     0400            76 78  230/  3/  4 1016.9R
BUOY 90 E PORT A 0350            75 75  280/  4/  6 1015.4R         1/ 5   2/ 5
BUOY 45 SE BAFFI 0350            75 76  190/  8/ 10 1015.6R         1
BUOY 200 E PT IS 0350                                 N/A           3/ 5   2/ 5
BUOY 15 E GALVES 0350            77 77  350/ 12/ 12 1015.3R         2/ 5
$$




USA.gov is the U.S. government's official web portal to all federal, state and local government web resources and services.